1483815600.6,31249,3.69,72500.5,-24.67,-60.27,-60.53,0,*69
1483815601.89,31250,3.69,72506.8,-24.65,-60.37,-60.37,0,*60
1483815603.2,31251,3.69,72500.5,-24.67,-60.11,-60.37,0,*67
1483815604.51,31252,3.69,72504.0,-24.67,-60.27,-60.37,0,*61
1483815605.82,31253,3.69,72504.3,-24.67,-60.53,-60.61,0,*60
1483815607.13,31254,3.69,72514.5,-24.67,-60.61,-60.77,0,*61
1483815608.44,31255,3.69,72514.0,-24.67,-60.61,-60.77,0,*60
1483815609.75,31256,3.69,72520.5,-24.67,-60.61,-61.03,0,*61
1483815611.04,31257,3.69,72502.8,-24.69,-60.61,-60.85,0,*61
1483815612.32,31258,3.69,72504.8,-24.69,-60.45,-60.61,0,*62
1483815613.62,31259,3.69,72514.8,-24.67,-60.27,-60.45,0,*6F
1483815614.9,31260,3.69,72518.5,-24.69,-60.37,-60.45,0,*6A
1483815616.18,31261,3.69,72516.5,-24.69,-60.45,-60.61,0,*68
1483815617.49,31262,3.69,72512.5,-24.67,-60.11,-60.27,0,*66
1483815618.8,31263,3.69,72514.5,-24.67,-60.11,-60.11,0,*62
1483815620.05,31264,3.69,72518.5,-24.69,-59.87,-60.37,0,*6A
1483815621.34,31265,3.69,72518.5,-24.67,-60.03,-60.37,0,*63
1483815622.62,31266,3.69,72520.3,-24.69,-60.37,-60.61,0,*6A
1483815623.87,31267,3.69,72518.8,-24.69,-59.95,-60.19,0,*66
1483815625.13,31268,3.69,72520.3,-24.69,-59.95,-60.27,0,*64
1483815626.41,31269,3.69,72514.8,-24.67,-60.03,-60.27,0,*6E
1483815627.66,31270,3.69,72528.8,-24.69,-59.71,-59.95,0,*64
1483815628.91,31271,3.69,72528.8,-24.69,-59.87,-60.19,0,*62
1483815630.18,31272,3.69,72518.8,-24.69,-59.71,-60.19,0,*68
1483815631.44,31273,3.69,72510.0,-24.69,-59.95,-60.19,0,*63
1483815632.72,31274,3.69,72520.0,-24.69,-60.19,-60.45,0,*63
1483815634.0,31275,3.69,72522.0,-24.69,-60.11,-60.37,0,*6F
1483815635.28,31276,3.69,72514.8,-24.69,-60.37,-60.45,0,*6D
1483815636.56,31277,3.69,72520.8,-24.69,-60.19,-60.45,0,*60
1483815637.84,31278,3.69,72516.3,-24.73,-60.19,-60.19,0,*6D
1483815639.09,31279,3.69,72508.5,-24.73,-59.71,-59.87,0,*65
1483815640.37,31280,3.69,72512.5,-24.73,-60.11,-60.11,0,*6A
1483815641.65,31281,3.69,72520.3,-24.69,-60.19,-60.37,0,*6C
1483815642.9,31282,3.69,72504.3,-24.67,-59.79,-59.79,0,*6D
1483815644.16,31283,3.69,72496.0,-24.69,-59.95,-60.37,0,*60
1483815645.38,31284,3.69,72500.8,-24.69,-59.87,-59.95,0,*66
1483815646.62,31285,3.69,72510.5,-24.67,-60.03,-60.03,0,*6A
1483815647.9,31286,3.69,72502.5,-24.69,-60.37,-60.45,0,*62
1483815649.18,31287,3.69,72502.0,-24.69,-60.37,-60.45,0,*63
1483815650.46,31288,3.69,72510.3,-24.69,-60.19,-60.19,0,*69
1483815651.74,31289,3.69,72506.0,-24.69,-60.11,-60.11,0,*68
1483815652.99,31290,3.69,72514.3,-24.69,-59.95,-60.11,0,*66
1483815654.24,31291,3.69,72516.3,-24.69,-59.95,-60.19,0,*6F
1483815655.53,31292,3.69,72518.8,-24.69,-60.11,-60.37,0,*66
1483815656.82,31293,3.69,72514.8,-24.69,-60.11,-60.37,0,*67
1483815658.1,31294,3.69,72508.5,-24.69,-60.37,-60.37,0,*64
1483815659.38,31295,3.69,72512.8,-24.69,-60.45,-60.61,0,*63
1483815660.66,31296,3.69,72514.0,-24.73,-60.11,-60.45,0,*6C
1483815661.94,31297,3.69,72512.8,-24.73,-60.19,-60.37,0,*60
1483815663.23,31298,3.69,72512.5,-24.73,-60.19,-60.37,0,*6F
1483815664.48,31299,3.69,72512.0,-24.73,-59.95,-60.11,0,*64
1483815665.76,31300,3.69,72508.3,-24.73,-59.55,-59.71,0,*65
1483815667.03,31301,3.69,72504.8,-24.69,-59.71,-59.71,0,*69
1483815668.3,31302,3.69,72510.8,-24.75,-60.03,-60.19,0,*6C
1483815669.58,31303,3.69,72510.5,-24.69,-60.11,-60.19,0,*63
1483815670.86,31304,3.69,72512.0,-24.67,-59.87,-60.11,0,*67
1483815672.1,31305,3.69,72506.5,-24.67,-59.79,-60.03,0,*64
1483815673.38,31306,3.69,72502.8,-24.73,-60.11,-60.11,0,*65
1483815674.64,31307,3.69,72494.8,-24.73,-59.95,-60.11,0,*62
1483815675.92,31308,3.69,72504.0,-24.73,-60.11,-60.19,0,*63
1483815677.14,31309,3.69,72510.5,-24.69,-59.95,-59.95,0,*61
1483815678.36,31310,3.69,72518.0,-24.69,-59.87,-59.95,0,*6A
1483815679.64,31311,3.69,72514.3,-24.73,-60.11,-60.11,0,*63
1483815680.92,31312,3.69,72502.0,-24.73,-60.11,-60.19,0,*68
1483815682.2,31313,3.69,72504.0,-24.73,-60.11,-60.19,0,*69
1483815683.48,31314,3.69,72506.0,-24.73,-60.37,-60.61,0,*65
1483815684.77,31315,3.69,72510.3,-24.73,-60.19,-60.37,0,*6B
1483815686.03,31316,3.69,72504.8,-24.73,-59.95,-60.37,0,*66
1483815687.32,31317,3.69,72502.3,-24.75,-60.45,-60.45,0,*63
1483815688.61,31318,3.69,72496.5,-24.73,-60.19,-60.37,0,*66
1483815689.89,31319,3.69,72504.0,-24.73,-60.37,-60.61,0,*68
1483815691.2,31320,3.69,72508.3,-24.75,-60.27,-60.45,0,*63
1483815692.5,31321,3.69,72506.5,-24.75,-60.45,-60.45,0,*66
1483815693.8,31322,3.69,72510.0,-24.75,-60.19,-60.27,0,*68
1483815695.08,31323,3.69,72504.0,-24.73,-60.61,-60.45,0,*64
1483815696.38,31324,3.69,72502.3,-24.75,-60.69,-60.69,0,*63
1483815697.68,31325,3.69,72514.3,-24.75,-60.45,-60.53,0,*65
1483815698.99,31326,3.69,72512.5,-24.75,-60.53,-60.53,0,*61
1483815700.3,31327,3.69,72510.0,-24.75,-60.19,-60.27,0,*6D
1483815701.55,31328,3.69,72506.5,-24.73,-59.95,-60.45,0,*6E
1483815702.85,31329,3.69,72508.0,-24.75,-60.19,-60.45,0,*67
1483815704.11,31330,3.69,72508.0,-24.77,-60.03,-60.19,0,*6F
1483815705.36,31331,3.69,72514.0,-24.77,-59.71,-59.79,0,*6D
1483815706.63,31332,3.69,72514.8,-24.75,-60.03,-60.19,0,*6F
1483815707.9,31333,3.69,72512.3,-24.75,-59.63,-59.79,0,*6E
1483815709.18,31334,3.69,72516.8,-24.75,-60.03,-60.19,0,*69
1483815710.42,31335,3.69,72516.0,-24.75,-59.95,-59.95,0,*63
1483815711.67,31336,3.69,72516.0,-24.75,-59.95,-60.03,0,*65
1483815712.94,31337,3.69,72514.8,-24.75,-60.03,-60.27,0,*67
1483815714.19,31338,3.69,72516.5,-24.75,-59.95,-59.95,0,*6E
1483815715.46,31339,3.69,72520.8,-24.75,-59.71,-59.79,0,*67
1483815716.71,31340,3.69,72522.5,-24.73,-59.63,-59.87,0,*6D
1483815717.97,31341,3.69,72518.0,-24.75,-59.47,-59.79,0,*6D
1483815719.22,31342,3.69,72512.8,-24.73,-59.29,-59.71,0,*68
1483815720.47,31343,3.69,72510.8,-24.75,-59.21,-59.37,0,*65
1483815721.75,31344,3.69,72512.8,-24.73,-59.63,-59.63,0,*63
1483815723.05,31345,3.69,72516.0,-24.75,-59.63,-59.71,0,*67
1483815724.32,31346,3.69,72516.0,-24.73,-59.55,-59.71,0,*67
1483815725.57,31347,3.69,72518.5,-24.73,-59.29,-59.55,0,*6B
1483815726.82,31348,3.69,72518.0,-24.73,-59.05,-59.13,0,*68
1483815728.07,31349,3.69,72524.3,-24.69,-59.05,-59.29,0,*6B
1483815729.35,31350,3.69,72524.5,-24.69,-59.55,-59.63,0,*68
1483815730.59,31351,3.69,72528.3,-24.69,-59.71,-59.95,0,*66
1483815731.81,31352,3.69,72528.5,-24.69,-59.87,-59.87,0,*6F
1483815733.08,31353,3.69,72534.5,-24.69,-59.71,-59.71,0,*6E
1483815734.38,31354,3.69,72530.0,-24.67,-59.55,-59.55,0,*67
1483815735.63,31355,3.69,72534.0,-24.69,-59.05,-59.29,0,*66
1483815736.88,31356,3.69,72534.0,-24.69,-59.05,-59.29,0,*65
1483815738.16,31357,3.69,72530.8,-24.69,-59.05,-59.05,0,*6A
1483815739.38,31358,3.69,72534.5,-24.69,-59.13,-59.37,0,*63
1483815740.68,31359,3.69,72536.0,-24.67,-58.97,-59.05,0,*60
1483815741.99,31360,3.69,72532.8,-24.67,-58.81,-58.97,0,*67
1483815743.27,31361,3.69,72538.8,-24.67,-59.05,-59.29,0,*6F
1483815744.56,31362,3.69,72536.8,-24.67,-59.47,-59.55,0,*61
1483815745.84,31363,3.69,72540.8,-24.67,-59.29,-59.55,0,*68
1483815747.15,31364,3.69,72542.8,-24.67,-58.97,-58.97,0,*64
1483815748.4,31365,3.69,72542.3,-24.67,-58.57,-58.73,0,*63
1483815749.65,31366,3.69,72534.8,-24.65,-58.57,-58.81,0,*6F
1483815750.92,31367,3.69,72536.0,-24.65,-58.81,-58.97,0,*62
1483815752.17,31368,3.69,72538.8,-24.65,-58.73,-58.81,0,*67
1483815753.42,31369,3.69,72544.3,-24.65,-58.81,-58.73,0,*66
1483815754.7,31370,3.69,72540.3,-24.63,-58.73,-58.89,0,*60
1483815755.97,31371,3.69,72526.3,-24.59,-58.65,-58.89,0,*6F
1483815757.27,31372,3.69,72522.0,-24.63,-58.97,-58.97,0,*67
1483815758.57,31373,3.69,72518.0,-24.59,-58.81,-59.05,0,*62
1483815759.86,31374,3.69,72520.5,-24.59,-58.41,-58.41,0,*68
1483815761.14,31375,3.69,72514.3,-24.63,-58.41,-58.65,0,*66
1483815762.39,31376,3.69,72508.0,-24.59,-59.13,-59.29,0,*63
1483815763.63,31377,3.69,72500.5,-24.59,-59.13,-59.37,0,*6D
1483815764.89,31378,3.69,72498.8,-24.59,-59.05,-59.13,0,*63
1483815766.17,31379,3.69,72482.3,-24.57,-58.89,-59.05,0,*6E
1483815767.44,31380,3.69,72482.3,-24.57,-58.81,-58.89,0,*65
1483815768.74,31381,3.69,72472.8,-24.55,-58.89,-59.05,0,*6B
1483815770.01,31382,3.69,72486.5,-24.55,-58.81,-59.13,0,*67
1483815771.29,31383,3.69,72496.8,-24.55,-58.81,-58.65,0,*66
1483815772.56,31384,3.69,72510.3,-24.55,-58.17,-58.57,0,*6F
1483815773.8,31385,3.69,72520.5,-24.55,-58.57,-58.65,0,*6B
1483815775.1,31386,3.69,72518.0,-24.55,-58.81,-58.89,0,*61
1483815776.41,31387,3.69,72500.0,-24.55,-58.33,-58.41,0,*6D
1483815777.69,31388,3.69,72502.5,-24.53,-58.81,-58.97,0,*66
1483815778.91,31389,3.69,72506.0,-24.53,-59.21,-59.29,0,*68
1483815780.13,31390,3.69,72502.3,-24.51,-59.21,-59.37,0,*6D
1483815781.35,31391,3.69,72498.0,-24.51,-59.29,-59.37,0,*64
1483815782.62,31392,3.69,72508.5,-24.53,-59.55,-59.55,0,*6A
1483815783.85,31393,3.69,72514.5,-24.51,-59.21,-59.37,0,*6E
1483815785.09,31394,3.69,72508.8,-24.51,-59.21,-59.55,0,*6D
1483815786.33,31395,3.69,72500.8,-24.53,-59.29,-59.55,0,*66
1483815787.58,31396,3.69,72494.8,-24.51,-59.63,-59.79,0,*67
1483815788.83,31397,3.69,72496.8,-24.51,-59.63,-59.79,0,*66
1483815790.05,31398,3.69,72502.3,-24.51,-59.79,-59.87,0,*63
1483815791.32,31399,3.69,72508.0,-24.51,-59.55,-59.55,0,*63
1483815792.56,31400,3.69,72506.8,-24.51,-59.37,-59.55,0,*60
1483815793.81,31401,3.69,72506.5,-24.51,-59.63,-59.79,0,*6E
1483815795.03,31402,3.69,72506.8,-24.53,-59.21,-59.37,0,*63
1483815796.28,31403,3.69,72496.0,-24.51,-59.37,-59.63,0,*66
1483815797.56,31404,3.69,72486.0,-24.51,-59.55,-59.63,0,*65
1483815798.78,31405,3.69,72482.3,-24.51,-59.79,-59.79,0,*61
1483815800.03,31406,3.69,72486.3,-24.51,-59.63,-59.79,0,*69
1483815801.28,31407,3.69,72492.0,-24.53,-59.79,-59.63,0,*6A
1483815802.53,31408,3.69,72498.5,-24.51,-59.37,-59.55,0,*68
1483815803.79,31409,3.69,72492.8,-24.51,-59.55,-59.55,0,*6D
1483815805.06,31410,3.69,72490.0,-24.53,-59.55,-59.55,0,*67
1483815806.34,31411,3.69,72490.0,-24.51,-59.55,-59.63,0,*61
1483815807.56,31412,3.69,72486.8,-24.53,-59.79,-59.87,0,*64
1483815808.78,31413,3.69,72490.5,-24.53,-59.79,-59.87,0,*65
1483815809.99,31414,3.69,72488.3,-24.51,-59.79,-59.87,0,*60
1483815811.21,31415,3.69,72488.3,-24.53,-59.79,-59.87,0,*63
1483815812.46,31416,3.69,72482.5,-24.51,-60.03,-60.27,0,*65
1483815813.75,31417,3.69,72478.5,-24.53,-60.27,-60.27,0,*60
1483815815.04,31418,3.69,72486.0,-24.53,-60.27,-60.53,0,*6C
1483815816.25,31419,3.69,72494.5,-24.51,-59.87,-60.03,0,*6A
1483815817.5,31420,3.69,72494.5,-24.53,-60.03,-60.11,0,*67
1483815818.76,31421,3.69,72492.5,-24.53,-59.87,-60.11,0,*60
1483815819.97,31422,3.69,72498.0,-24.53,-60.03,-60.03,0,*66
1483815821.26,31423,3.69,72496.5,-24.53,-60.27,-60.37,0,*66
1483815822.55,31424,3.69,72500.8,-24.53,-60.27,-60.53,0,*63
1483815823.8,31425,3.69,72502.8,-24.53,-60.03,-60.11,0,*62
1483815825.05,31426,3.69,72500.0,-24.57,-59.95,-60.11,0,*60
1483815826.35,31427,3.69,72506.5,-24.55,-60.11,-60.19,0,*6D
1483815827.66,31428,3.69,72504.5,-24.55,-60.11,-60.37,0,*6E
1483815828.94,31429,3.69,72502.5,-24.55,-59.95,-60.37,0,*69
1483815830.25,31430,3.69,72506.0,-24.55,-60.19,-60.37,0,*6F
1483815831.56,31431,3.69,72500.8,-24.55,-60.19,-60.61,0,*6D
1483815832.84,31432,3.69,72510.0,-24.57,-60.37,-60.61,0,*60
1483815834.12,31433,3.69,72506.3,-24.57,-60.37,-60.45,0,*67
1483815835.4,31434,3.69,72504.8,-24.57,-60.19,-60.19,0,*65
1483815836.67,31435,3.69,72506.5,-24.57,-60.19,-60.19,0,*64
1483815837.92,31436,3.69,72504.5,-24.57,-59.95,-60.19,0,*69
1483815839.14,31437,3.69,72506.3,-24.57,-59.87,-59.95,0,*65
1483815840.36,31438,3.69,72504.3,-24.57,-59.95,-59.95,0,*69
1483815841.58,31439,3.69,72498.8,-24.57,-59.95,-59.95,0,*68
1483815842.83,31440,3.69,72498.8,-24.57,-59.95,-60.11,0,*60
1483815844.1,31441,3.69,72494.8,-24.57,-60.11,-60.11,0,*67
1483815845.38,31442,3.69,72488.5,-24.57,-60.11,-60.19,0,*6C
1483815846.66,31443,3.69,72484.0,-24.57,-60.11,-60.11,0,*65
1483815847.93,31444,3.69,72476.3,-24.57,-60.11,-60.19,0,*6A
1483815849.22,31445,3.69,72474.3,-24.57,-60.11,-60.37,0,*67
1483815850.49,31446,3.69,72480.8,-24.57,-60.19,-60.45,0,*69
1483815851.77,31447,3.69,72484.5,-24.57,-60.37,-60.45,0,*64
1483815853.05,31448,3.69,72488.8,-24.57,-60.19,-60.37,0,*62
1483815854.32,31449,3.69,72486.3,-24.59,-59.95,-60.19,0,*6F
1483815855.59,31450,3.69,72476.0,-24.59,-59.95,-60.11,0,*6F
1483815856.84,31451,3.69,72472.0,-24.59,-59.95,-59.95,0,*68
1483815858.1,31452,3.69,72468.3,-24.59,-59.71,-59.95,0,*61
1483815859.37,31453,3.69,72466.8,-24.59,-59.95,-60.11,0,*6C
1483815860.67,31454,3.69,72482.8,-24.59,-60.11,-60.11,0,*6D
1483815861.98,31455,3.69,72486.3,-24.59,-60.19,-60.45,0,*65
1483815863.25,31456,3.69,72482.8,-24.59,-59.95,-60.19,0,*61
1483815864.55,31457,3.69,72480.5,-24.59,-60.37,-60.61,0,*6D
1483815865.85,31458,3.69,72478.3,-24.59,-60.19,-60.11,0,*69
1483815867.15,31459,3.69,72482.0,-24.59,-60.11,-60.19,0,*68
1483815868.45,31460,3.69,72486.5,-24.59,-60.19,-60.45,0,*63
1483815869.73,31461,3.69,72490.8,-24.63,-60.03,-60.27,0,*64
1483815871.01,31462,3.69,72484.8,-24.63,-60.03,-60.19,0,*6A
1483815872.31,31463,3.69,72480.8,-24.59,-60.11,-60.45,0,*68
1483815873.61,31464,3.69,72486.5,-24.63,-60.45,-60.53,0,*60
1483815874.91,31465,3.69,72488.0,-24.63,-60.45,-60.53,0,*61
1483815876.22,31466,3.69,72494.0,-24.63,-60.45,-60.53,0,*62
1483815877.51,31467,3.69,72494.0,-24.59,-60.37,-60.69,0,*66
1483815878.82,31468,3.69,72488.3,-24.63,-60.53,-60.77,0,*6D
1483815880.12,31469,3.69,72490.3,-24.63,-60.45,-60.69,0,*64
1483815881.41,31470,3.69,72490.8,-24.63,-60.45,-60.69,0,*6C
1483815882.72,31471,3.69,72490.5,-24.63,-60.45,-60.53,0,*64
1483815884.02,31472,3.69,72488.8,-24.63,-60.45,-60.53,0,*67
1483815885.33,31473,3.69,72492.3,-24.63,-60.45,-60.53,0,*66
1483815886.61,31474,3.69,72496.0,-24.65,-60.53,-60.61,0,*61
1483815887.89,31475,3.69,72492.3,-24.65,-60.53,-60.77,0,*67
1483815889.17,31476,3.69,72492.0,-24.65,-60.37,-60.61,0,*61
1483815890.48,31477,3.69,72488.3,-24.67,-60.37,-60.53,0,*63
1483815891.77,31478,3.69,72494.8,-24.65,-60.11,-60.37,0,*68
1483815893.05,31479,3.69,72488.3,-24.65,-60.37,-60.53,0,*6F
1483815894.33,31480,3.69,72480.3,-24.65,-60.37,-60.37,0,*6B
1483815895.62,31481,3.69,72486.8,-24.65,-60.37,-60.37,0,*6A
1483815896.93,31482,3.69,72482.5,-24.67,-60.53,-60.53,0,*6B
1483815898.23,31483,3.69,72486.5,-24.67,-60.53,-60.77,0,*6C
1483815899.55,31484,3.69,72484.5,-24.67,-60.27,-60.61,0,*6F
1483815900.86,31485,3.69,72492.8,-24.67,-60.37,-60.53,0,*6E
1483815902.17,31486,3.69,72496.3,-24.67,-60.53,-60.53,0,*6F
1483815903.47,31487,3.69,72498.3,-24.67,-60.11,-60.11,0,*6E
1483815904.79,31488,3.69,72484.5,-24.67,-60.27,-60.37,0,*60
1483815906.1,31489,3.69,72484.5,-24.67,-60.53,-60.53,0,*60
1483815907.41,31490,3.69,72478.3,-24.67,-60.27,-60.37,0,*69
1483815908.73,31491,3.69,72486.3,-24.67,-60.27,-60.53,0,*6A
1483815910.04,31492,3.69,72486.8,-24.67,-60.37,-60.37,0,*6A
1483815911.35,31493,3.69,72486.8,-24.67,-60.53,-60.53,0,*6B
1483815912.62,31494,3.69,72488.3,-24.67,-60.03,-60.11,0,*6F
1483815913.93,31495,3.69,72494.0,-24.67,-60.53,-60.61,0,*6C
1483815915.25,31496,3.69,72494.5,-24.67,-60.11,-60.53,0,*68
1483815916.53,31497,3.69,72492.8,-24.69,-60.11,-60.19,0,*69
1483815917.84,31498,3.69,72498.8,-24.67,-60.27,-60.53,0,*63
1483815919.15,31499,3.69,72498.8,-24.67,-60.53,-60.53,0,*61
1483815920.43,31500,3.69,72502.3,-24.69,-60.45,-60.61,0,*68
1483815921.72,31501,3.69,72488.3,-24.69,-60.19,-60.37,0,*63
1483815923.0,31502,3.69,72484.8,-24.69,-60.37,-60.61,0,*6F
1483815924.31,31503,3.69,72492.0,-24.67,-60.37,-60.53,0,*61
1483815925.56,31504,3.69,72488.8,-24.69,-59.95,-60.19,0,*64
1483815926.85,31505,3.69,72484.5,-24.69,-60.37,-60.61,0,*68
1483815928.13,31506,3.69,72482.8,-24.69,-60.19,-60.45,0,*61
1483815929.41,31507,3.69,72484.0,-24.69,-60.37,-60.61,0,*6A
1483815930.69,31508,3.69,72488.5,-24.69,-60.61,-60.69,0,*6E
1483815931.97,31509,3.69,72494.0,-24.69,-60.45,-60.45,0,*67
1483815933.25,31510,3.69,72494.0,-24.69,-60.19,-60.37,0,*63
1483815934.53,31511,3.69,72496.5,-24.69,-60.11,-60.19,0,*66
1483815935.82,31512,3.69,72498.8,-24.69,-60.19,-60.37,0,*61
1483815937.1,31513,3.69,72498.8,-24.73,-60.19,-60.19,0,*67
1483815938.38,31514,3.69,72506.8,-24.73,-60.11,-60.19,0,*68
1483815939.67,31515,3.69,72504.8,-24.73,-60.19,-60.37,0,*6D
1483815940.92,31516,3.69,72510.0,-24.73,-59.95,-60.19,0,*6C
1483815942.17,31517,3.69,72510.0,-24.73,-59.95,-60.19,0,*6D
1483815943.43,31518,3.69,72498.0,-24.73,-59.95,-60.11,0,*6A
1483815944.68,31519,3.69,72502.0,-24.73,-59.87,-60.11,0,*68
1483815945.93,31520,3.69,72492.3,-24.69,-60.11,-59.95,0,*6A
1483815947.21,31521,3.69,72494.8,-24.69,-60.11,-60.19,0,*65
1483815948.43,31522,3.69,72494.5,-24.69,-59.95,-59.95,0,*6E
1483815949.65,31523,3.69,72500.5,-24.69,-59.87,-59.95,0,*6C
1483815950.93,31524,3.69,72504.5,-24.69,-60.11,-60.19,0,*60
1483815952.22,31525,3.69,72506.3,-24.69,-60.11,-60.37,0,*6D
1483815953.49,31526,3.69,72506.0,-24.73,-60.37,-60.45,0,*64
1483815954.71,31527,3.69,72514.3,-24.73,-59.87,-59.95,0,*63
1483815955.96,31528,3.69,72512.8,-24.73,-59.71,-59.87,0,*66
1483815957.25,31529,3.69,72522.0,-24.73,-60.19,-60.37,0,*62
1483815958.52,31530,3.69,72528.0,-24.73,-60.11,-60.19,0,*6E
1483815959.8,31531,3.69,72530.3,-24.73,-59.71,-59.71,0,*67
1483815961.08,31532,3.69,72520.5,-24.69,-59.63,-60.11,0,*60
1483815962.36,31533,3.69,72530.5,-24.69,-59.63,-59.71,0,*6D
1483815963.61,31534,3.69,72530.5,-24.69,-59.37,-59.63,0,*68
1483815964.88,31535,3.69,72526.3,-24.69,-59.55,-59.71,0,*6E
1483815966.16,31536,3.69,72526.3,-24.69,-59.71,-60.11,0,*67
1483815967.41,31537,3.69,72520.8,-24.69,-59.95,-60.11,0,*6C
1483815968.69,31538,3.69,72520.8,-24.73,-60.11,-60.19,0,*66
1483815969.91,31539,3.69,72516.8,-24.73,-59.87,-59.87,0,*6F
1483815971.19,31540,3.69,72516.8,-24.69,-59.71,-60.11,0,*66
1483815972.47,31541,3.69,72520.0,-24.69,-60.11,-60.37,0,*6F
1483815973.75,31542,3.69,72510.5,-24.67,-59.55,-59.79,0,*68
1483815975.03,31543,3.69,72506.8,-24.69,-60.11,-60.19,0,*61
1483815976.31,31544,3.69,72520.0,-24.69,-60.11,-60.37,0,*6A
1483815977.56,31545,3.69,72522.3,-24.69,-59.95,-60.19,0,*61
1483815978.78,31546,3.69,72518.8,-24.69,-59.87,-59.95,0,*6F
1483815980.03,31547,3.69,72520.0,-24.69,-59.13,-59.55,0,*6F
1483815981.29,31548,3.69,72522.3,-24.69,-59.29,-59.63,0,*6C
1483815982.58,31549,3.69,72522.8,-24.67,-59.47,-59.55,0,*6E
1483815983.83,31550,3.69,72516.8,-24.69,-59.63,-59.87,0,*61
1483815985.11,31551,3.69,72508.0,-24.67,-59.87,-60.11,0,*61
1483815986.36,31552,3.69,72516.3,-24.69,-59.95,-60.19,0,*67
1483815987.64,31553,3.69,72524.3,-24.67,-59.87,-60.11,0,*63
1483815988.91,31554,3.69,72524.0,-24.69,-59.71,-59.71,0,*6F
1483815990.21,31555,3.69,72522.0,-24.67,-59.55,-59.63,0,*65
1483815991.47,31556,3.69,72518.3,-24.69,-59.95,-60.19,0,*63
1483815992.72,31557,3.69,72514.0,-24.69,-59.95,-60.19,0,*62
1483815993.99,31558,3.69,72514.3,-24.69,-59.63,-59.71,0,*60
1483815995.3,31559,3.69,72508.3,-24.67,-59.55,-59.63,0,*69
1483815996.52,31560,3.69,72506.5,-24.69,-59.87,-59.87,0,*68
1483815997.79,31561,3.69,72504.3,-24.67,-60.03,-60.11,0,*64
1483815999.11,31562,3.69,72504.0,-24.67,-60.11,-60.37,0,*60
1483816000.39,31563,3.69,72506.3,-24.69,-60.11,-60.19,0,*63
1483816001.69,31564,3.69,72500.3,-24.67,-60.11,-60.19,0,*6A
1483816002.94,31565,3.69,72508.0,-24.67,-59.87,-59.87,0,*63
1483816004.19,31566,3.69,72510.5,-24.69,-59.37,-59.63,0,*6F
1483816005.47,31567,3.69,72522.5,-24.69,-59.63,-59.71,0,*6C
1483816006.75,31568,3.69,72520.0,-24.69,-59.63,-59.63,0,*60
1483816008.02,31569,3.69,72524.3,-24.67,-59.21,-59.47,0,*6F
1483816009.27,31570,3.69,72516.0,-24.69,-59.05,-59.37,0,*68
1483816010.52,31571,3.69,72518.8,-24.67,-59.21,-59.29,0,*6E
1483816011.79,31572,3.69,72522.5,-24.67,-59.21,-59.47,0,*65
1483816013.04,31573,3.69,72518.3,-24.67,-59.21,-59.29,0,*6C
1483816014.35,31574,3.69,72510.5,-24.67,-59.55,-59.63,0,*66
1483816015.62,31575,3.69,72508.0,-24.67,-59.63,-59.79,0,*69
1483816016.9,31576,3.69,72518.5,-24.67,-59.63,-59.87,0,*6B
1483816018.17,31577,3.69,72512.0,-24.67,-59.63,-59.79,0,*6B
1483816019.42,31578,3.69,72504.3,-24.65,-59.21,-59.55,0,*6E
1483816020.66,31579,3.69,72498.3,-24.67,-59.79,-59.87,0,*6F
1483816021.93,31580,3.69,72502.0,-24.67,-59.55,-60.03,0,*61
1483816023.23,31581,3.69,72502.3,-24.67,-59.55,-59.63,0,*6C
1483816024.51,31582,3.69,72496.8,-24.65,-59.55,-59.63,0,*6D
1483816025.82,31583,3.69,72496.0,-24.67,-59.63,-59.63,0,*6B
1483816027.09,31584,3.69,72506.3,-24.65,-59.47,-59.55,0,*6D
1483816028.37,31585,3.69,72504.3,-24.67,-59.63,-59.79,0,*66
1483816029.61,31586,3.69,72504.5,-24.67,-60.03,-60.03,0,*6E
1483816030.9,31587,3.69,72516.3,-24.65,-60.27,-60.27,0,*6D
1483816032.18,31588,3.69,72518.5,-24.65,-60.11,-60.27,0,*67
1483816033.46,31589,3.69,72516.8,-24.67,-60.03,-60.27,0,*67
1483816034.77,31590,3.69,72518.8,-24.67,-60.11,-60.27,0,*6C
1483816036.05,31591,3.69,72516.8,-24.67,-60.03,-60.27,0,*6E
1483816037.36,31592,3.69,72504.5,-24.67,-60.11,-60.27,0,*6E
1483816038.67,31593,3.69,72510.3,-24.67,-60.11,-60.37,0,*6E
1483816039.92,31594,3.69,72506.3,-24.67,-59.79,-59.87,0,*6C
1483816041.2,31595,3.69,72504.3,-24.67,-59.87,-60.11,0,*69
1483816042.51,31596,3.69,72492.0,-24.67,-60.27,-60.27,0,*6F
1483816043.75,31597,3.69,72490.0,-24.67,-59.87,-60.03,0,*68
1483816045.04,31598,3.69,72494.5,-24.67,-60.03,-60.27,0,*67
1483816046.35,31599,3.69,72502.3,-24.67,-60.27,-60.37,0,*61
1483816047.59,31600,3.69,72502.0,-24.67,-59.79,-60.03,0,*64
1483816048.9,31601,3.69,72500.8,-24.67,-59.47,-59.63,0,*64
1483816050.2,31602,3.69,72506.3,-24.67,-59.55,-59.63,0,*64
1483816051.44,31603,3.69,72506.8,-24.67,-59.87,-59.87,0,*60
1483816052.66,31604,3.69,72502.0,-24.65,-59.79,-59.87,0,*64
1483816053.96,31605,3.69,72500.8,-24.67,-59.47,-59.63,0,*60
1483816055.27,31606,3.69,72504.0,-24.67,-59.55,-59.63,0,*60
1483816056.51,31607,3.69,72500.8,-24.67,-59.79,-59.87,0,*65
1483816057.76,31608,3.69,72502.8,-24.67,-59.79,-60.03,0,*6C
1483816059.0,31609,3.69,72506.5,-24.67,-60.03,-60.03,0,*6A
1483816060.28,31610,3.69,72502.3,-24.67,-60.03,-60.27,0,*64
1483816061.59,31611,3.69,72506.3,-24.67,-60.11,-60.11,0,*63
1483816062.87,31612,3.69,72504.3,-24.67,-60.03,-60.11,0,*63
1483816064.14,31613,3.69,72516.8,-24.67,-59.87,-60.11,0,*64
1483816065.45,31614,3.69,72518.5,-24.67,-60.11,-60.37,0,*62
1483816066.73,31615,3.69,72516.0,-24.67,-59.79,-60.11,0,*63
1483816068.04,31616,3.69,72516.8,-24.67,-59.55,-59.63,0,*61
1483816069.28,31617,3.69,72520.8,-24.65,-59.55,-60.03,0,*6E
1483816070.55,31618,3.69,72516.0,-24.67,-59.63,-59.87,0,*60
1483816071.8,31619,3.69,72506.8,-24.67,-59.79,-59.87,0,*6A
1483816073.04,31620,3.69,72502.3,-24.67,-59.79,-59.87,0,*60
1483816074.28,31621,3.69,72494.5,-24.67,-59.87,-59.87,0,*60
1483816075.59,31622,3.69,72500.5,-24.67,-60.11,-60.27,0,*66
1483816076.91,31623,3.69,72510.3,-24.67,-60.11,-60.37,0,*66
1483816078.22,31624,3.69,72504.0,-24.67,-60.27,-60.27,0,*65
1483816079.46,31625,3.69,72496.8,-24.67,-59.87,-60.03,0,*62
1483816080.71,31626,3.69,72498.0,-24.67,-59.87,-59.87,0,*67
1483816082.02,31627,3.69,72504.3,-24.67,-60.27,-60.27,0,*66
1483816083.27,31628,3.69,72512.8,-24.69,-60.03,-60.27,0,*61
1483816084.55,31629,3.69,72514.3,-24.67,-59.63,-59.79,0,*63
1483816085.82,31630,3.69,72516.8,-24.67,-59.29,-59.55,0,*6B
1483816087.1,31631,3.69,72518.0,-24.67,-59.63,-59.87,0,*6B
1483816088.4,31632,3.69,72510.0,-24.67,-59.47,-59.63,0,*64
1483816089.7,31633,3.69,72514.8,-24.67,-59.55,-59.55,0,*63
1483816090.92,31634,3.69,72516.0,-24.65,-59.79,-59.79,0,*66
1483816092.23,31635,3.69,72516.5,-24.67,-59.63,-60.11,0,*6A
1483816093.5,31636,3.69,72512.8,-24.67,-59.05,-59.29,0,*68
1483816094.8,31637,3.69,72504.8,-24.67,-59.47,-59.47,0,*67
1483816096.07,31638,3.69,72508.3,-24.67,-59.29,-59.55,0,*63
1483816097.29,31639,3.69,72514.8,-24.65,-59.79,-59.79,0,*6B
1483816098.57,31640,3.69,72508.3,-24.67,-59.63,-59.79,0,*6C
1483816099.88,31641,3.69,72504.8,-24.67,-59.55,-59.63,0,*63
1483816101.13,31642,3.69,72504.8,-24.65,-59.29,-59.63,0,*69
1483816102.37,31643,3.69,72506.0,-24.67,-59.87,-60.03,0,*62
1483816103.62,31644,3.69,72508.3,-24.67,-59.87,-59.87,0,*63
1483816104.86,31645,3.69,72504.3,-24.67,-59.79,-59.87,0,*63
1483816106.1,31646,3.69,72506.0,-24.67,-60.03,-60.03,0,*61
1483816107.41,31647,3.69,72508.5,-24.67,-60.11,-60.11,0,*60
1483816108.69,31648,3.69,72508.0,-24.67,-60.03,-60.27,0,*69